TimeCDT,TemperatureF,Dew PointF,Humidity,Sea Level PressureIn,VisibilityMPH,Wind Direction,Wind SpeedMPH,Gust SpeedMPH,PrecipitationIn,Events,Conditions,WindDirDegrees,DateUTC
12:56 AM,64.0,62.1,93,30.16,7.0,Calm,Calm,-,N/A,,Clear,0,2012-10-13 05:56:00
1:56 AM,64.9,63.0,93,30.15,7.0,North,3.5,-,N/A,,Clear,10,2012-10-13 06:56:00
2:56 AM,64.9,64.0,97,30.15,6.0,North,5.8,-,N/A,,Clear,360,2012-10-13 07:56:00
3:56 AM,66.9,64.0,90,30.15,8.0,North,4.6,-,N/A,,Clear,10,2012-10-13 08:56:00
4:56 AM,66.9,64.0,90,30.16,9.0,NE,4.6,-,N/A,,Clear,50,2012-10-13 09:56:00
5:56 AM,66.0,63.0,90,30.17,9.0,NE,3.5,-,N/A,,Clear,50,2012-10-13 10:56:00
6:56 AM,66.0,63.0,90,30.19,8.0,ENE,4.6,-,N/A,,Clear,60,2012-10-13 11:56:00
7:56 AM,69.1,64.0,84,30.20,10.0,ENE,4.6,-,N/A,,Clear,60,2012-10-13 12:56:00
8:56 AM,73.9,64.9,73,30.21,10.0,East,6.9,-,N/A,,Clear,80,2012-10-13 13:56:00
9:56 AM,79.0,66.0,64,30.21,10.0,East,5.8,-,N/A,,Clear,100,2012-10-13 14:56:00
10:56 AM,82.9,66.0,56,30.21,10.0,East,6.9,-,N/A,,Clear,90,2012-10-13 15:56:00
11:56 AM,84.0,66.0,55,30.19,10.0,Variable,6.9,-,N/A,,Clear,0,2012-10-13 16:56:00
12:56 PM,86.0,66.9,53,30.16,10.0,Variable,4.6,-,N/A,,Clear,0,2012-10-13 17:56:00
1:56 PM,88.0,66.9,49,30.13,10.0,Calm,Calm,-,N/A,,Partly Cloudy,0,2012-10-13 18:56:00
2:56 PM,87.1,68.0,53,30.11,10.0,SW,9.2,-,0.00,,Mostly Cloudy,220,2012-10-13 19:56:00
3:56 PM,84.9,66.0,53,30.11,10.0,SSW,10.4,-,N/A,,Clear,210,2012-10-13 20:56:00
4:56 PM,82.9,66.0,56,30.11,10.0,South,11.5,-,N/A,,Clear,190,2012-10-13 21:56:00
5:56 PM,79.0,69.1,72,30.11,10.0,South,8.1,-,N/A,,Partly Cloudy,190,2012-10-13 22:56:00
6:56 PM,77.0,70.0,79,30.12,10.0,SSE,4.6,-,N/A,,Partly Cloudy,150,2012-10-13 23:56:00
7:56 PM,73.9,70.0,87,30.13,10.0,SE,3.5,-,N/A,,Partly Cloudy,130,2012-10-14 00:56:00
8:56 PM,73.9,70.0,87,30.14,9.0,Calm,Calm,-,N/A,,Mostly Cloudy,0,2012-10-14 01:56:00
9:56 PM,71.1,69.1,93,30.14,8.0,Calm,Calm,-,N/A,,Scattered Clouds,0,2012-10-14 02:56:00
10:56 PM,69.1,66.9,93,30.13,7.0,Calm,Calm,-,N/A,,Partly Cloudy,0,2012-10-14 03:56:00
11:56 PM,70.0,69.1,97,30.12,6.0,East,3.5,-,N/A,,Clear,90,2012-10-14 04:56:00